This is the latest recevied weather packets stored in our database for station/object KE4AMH. If no packets are shown the sender has not sent any weather packets the latest 10 day(s).
| Time | Temp. | Humidity | Pressure | Rain* | Wind** | Luminosity | Snow |
|---|---|---|---|---|---|---|---|
| 1778108884 | 25.56° C | 68% | 1012 hPa | 0 mm | - | 6 W/m² | - |
| 1778108581 | 26.11° C | 67% | 1011.9 hPa | 0 mm | - | 11 W/m² | - |
| 1778108277 | 26.11° C | 66% | 1011.9 hPa | 0 mm | - | 15 W/m² | - |
| 1778107974 | 26.11° C | 66% | 1011.9 hPa | 0 mm | - | 29 W/m² | - |
| 1778107671 | 26.11° C | 66% | 1011.9 hPa | 0 mm | - | 43 W/m² | - |
| 1778107369 | 26.11° C | 65% | 1011.7 hPa | 0 mm | - | 46 W/m² | - |
| 1778107064 | 26.11° C | 65% | 1011.6 hPa | 0 mm | - | 51 W/m² | - |
| 1778106760 | 26.11° C | 64% | 1011.5 hPa | 0 mm | - | 54 W/m² | - |
| 1778106457 | 26.67° C | 65% | 1011.4 hPa | 0 mm | - | 61 W/m² | - |
| 1778106153 | 26.67° C | 64% | 1011.3 hPa | 0 mm | - | 57 W/m² | - |
| 1778105851 | 26.67° C | 64% | 1011.2 hPa | 0 mm | - | 62 W/m² | - |
| 1778105549 | 26.67° C | 65% | 1011.1 hPa | 0 mm | - | 81 W/m² | - |
| 1778105246 | 26.67° C | 65% | 1011 hPa | 0 mm | - | 76 W/m² | - |
| 1778104940 | 26.67° C | 66% | 1011 hPa | 0 mm | - | 78 W/m² | - |
| 1778104638 | 26.67° C | 66% | 1011 hPa | 0 mm | - | 76 W/m² | - |
| 1778104333 | 27.22° C | 67% | 1011.1 hPa | 0 mm | - | 88 W/m² | - |
| 1778104030 | 26.67° C | 68% | 1011.3 hPa | 0 mm | - | 79 W/m² | - |
| 1778103727 | 27.22° C | 66% | 1011.5 hPa | 0 mm | - | 76 W/m² | - |
| 1778103425 | 26.67° C | 67% | 1011.7 hPa | 0 mm | - | 97 W/m² | - |
| 1778103123 | 26.67° C | 66% | 1011.4 hPa | 0 mm | - | 94 W/m² | - |
| 1778102820 | 27.22° C | 64% | 1011.4 hPa | 0 mm | - | 91 W/m² | - |
| 1778102515 | 27.22° C | 65% | 1011.8 hPa | 0 mm | - | 89 W/m² | - |
| 1778102210 | 27.22° C | 64% | 1011.7 hPa | 0 mm | - | 87 W/m² | - |
| 1778101907 | 27.22° C | 66% | 1011.9 hPa | 0 mm | - | 146 W/m² | - |
| 1778101604 | 26.67° C | 64% | 1012.1 hPa | 0 mm | - | 120 W/m² | - |
* Rain latest hour (hover to see other rain measurements)
** Current wind speed in m/s (hover to see current wind gust speed)